CZ-6A DEB, 61123

Orbit data source: Space-Track

CZ-6A DEB, 61123 is space debris in LEO originally from a launch on Tue, 06 Aug 2024 UTC launched from the Taiyaun Space Center, China (TSC). Debris objects in space refer to the collection of defunct objects orbiting the Earth. Examples of debris include non-operational satellites, rocket bodies, and fragments generated from explosions, collisions, or faulty payload assembly.

Loading next visibility...
Identifier
61123, 2024-140PR
Orbit
LEO
Country
Flag of CNCN / PRC
Related business
Manufacturer
SAST
Mission
Spacecraft
Bus & Motor
Unknown
Mass
Unknown
Launch date (UTC)
2024-08-06 (2 years ago)
Launch vehicle
Unknown
Launch site
Taiyaun Space Center, China (TSC)
Object type
Payload
Rocket body
Debris
Shape & HBR
Unknown shape, 0.1 m
Radar Cross Section
Small (<0.1 m²)

Expand to show TLE details & history
Last TLE update: 8 hours ago

TLE from 8 hours ago
0 CZ-6A DEB
1 61123U 24140PR  26118.71366897  .00000686  00000-0  31967-3 0  9998
2 61123  88.9943 280.3472 0050488 350.6233   9.4008 14.18767642 87168
Epoch: 2026-04-28T17:07Z
TLE epoch observation values (Epoch: 2026-04-28T17:07:40.999Z)
Latitude
-0.00003°
Longitude
166.74134°
Altitude
796.671 km
Speed
7.474 km/s
True Right ascension
18h 41m 23s
True Declination
0° 00' 00"
Sunlit
Object was in daylight at epoch
Visualization orbit readout
Latitude
Unknown
Longitude
Unknown
Altitude
Unknown
Speed
Unknown
Apparent Right ascension
Unknown
Apparent Declination
Unknown
Sunlit
N/A
Visualization observer readout
Local Sidereal Time
08:21:13
Azimuth
Unknown
Elevation
Unknown
Doppler factor
Unknown
Orbital elements
Apogee altitude
862.851 km
Perigee altitude
790.102 km
Semi-major axis
7,204.613 km
Eccentricity
0.00505
Inclination
88.9943°
RAAN
280.3472°
Arg. of periapsis
350.6233°
True anomaly
9.49589°
Mean anomaly
9.4008°
Eccentric anomaly
9.44829°
Mean motion
3.54917 °/min
Orbital period
101.43 mins
BSTAR
0.00031967
Loading maneuver chart data...
Computing Atmospheric mass density...
Loading historical data...
Loading historical data...
Loading historical data...
Loading historical data...
Loading historical data...
Loading historical data...
Loading historical data...

Documentation

Showing up to 5 results
|